星链-1844 (STARLINK-1844 )

导读

STARLINK-1844是美国太空探索技术公司(SpaceX)星链(Starlink)项目的卫星,于2020年11月25日发射入轨,属于星链低轨卫星互联网星座组网卫星。星链项目旨在为全球提供高速卫星互联网服务,该卫星服役后为星座覆盖能力提供支撑,目前已在轨运行超5年,是星链早期组网部署的成员之一。

基本信息
目录编号:
47134
目录名称:
STARLINK-1844
国际标识:
2020-088N
轨道中心:
EARTH
卫星名称:
星链-1844
卫星全名:
星链-1844 (STARLINK-1844 )
卫星状态:
已陨落 最后检测时间 2024-12-18
发射日期:
2020-11-25 UTC
国别 :
美国 (US)
星等 :
--
该卫星已列入 空间交会检测服务 Space Conjunction Data Service (SCDS) ,当前飞行风险评估等级: 无高风险
轨道信息
数据来源 国际轨道数据
星历时间: 2024-12-18T11:05:23+0800
轨道信息已过期632天
半长轴: 6591.693km
偏心率: 0.001024
轨道倾角: 53.028°
近地点辐角 325.895°
升交点赤经 116.109°
平近点角 192.557°
近地点: 206.808km
远地点: 220.308km
周期: 88.768分钟
每日圈数: 16.22211
详细信息
固有亮度:
5
最大亮度:
2.5
卫星平台:
Starlink V1.0
覆盖范围:
全球
运营商:
太空探索技术公司
运营商所在国:
美国
制造商(研发单位):
太空探索技术公司
制造商所在国:
美国
使用方式:
暂无
卫星简介
星链(Starlink)计划是由太空探索技术公司(SpaceX)提出的一个巨型低轨卫星互联网星座项目,计划在2019年至2024年间在太空搭建由约1.2万颗卫星组成的“星链”网络,其中1584颗将部署在地球上空550千米处的近地轨道,并从2020年开始工作。该卫星仍在工作。
与全量物体交会距离演化趋势
与全量物体交会风险概率演化趋势